Location: Livorno
(43.5500°N, 10.3170°E)
Time: 20:01:14
(UTC+01:00)

ISS - Visible Passes

Search period start: 02 December 2024 00:00
Search period end: 12 December 2024 00:00
Orbit: 411 x 421 km, 51.6° (Epoch: 02 December)

Date Brightness Start Highest point End Pass type
(mag) Time Alt. Az. Time Alt. Az. Time Alt. Az.
02 Dec -3.6 17:45:26 10° WNW 17:48:49 75° SW 17:52:11 10° SE visible
02 Dec -0.4 19:24:52 10° SW 19:25:01 10° SW 19:25:09 10° SW visible
03 Dec -0.8 18:34:24 10° W 18:36:41 17° SW 18:38:59 10° S visible
04 Dec -1.6 17:45:20 10° WNW 17:48:17 28° SW 17:51:14 10° SSE visible
06 Dec -0.1 17:46:24 10° WSW 17:47:24 11° SW 17:48:24 10° SSW visible
